Back to catalog

STARLINK-37181

AliveCommunicationsVLEO
NORAD 68341·PAYLOAD·🇺🇸 United States

Launched Mar 22, 2026 from Cape Canaveral Space Force Station

Loading…

Next Passes (next 24 hours)

TLE

FreshSource: CelesTrak SupGP

Epoch: Sep 14, 2026, 21:05 UTC

1 68341C 26059W   26257.87895833 -.00004546  00000+0 -13426-3 0  2573
2 68341  53.1581 182.1095 0001237  99.8395 316.1781 15.34405910    19

Track STARLINK-37181 in real time with AllMySat

Download on the App Store